Weather History for Howell, MI

Change the Weather History Date:

Tuesday, November 25, 2014

  Actual Average Record
Temperature  
Mean Temperature 29 °F -  
Max Temperature 30 °F 43 °F 60 °F (2011)
Min Temperature 28 °F 31 °F 15 °F (2005)
Degree Days  
Heating Degree Days 36    
Moisture  
Dew Point 24 °F    
Average Humidity 80    
Maximum Humidity 92    
Minimum Humidity 72    
Precipitation  
Precipitation 0.00 in - - ()
Sea Level Pressure  
Sea Level Pressure 29.95 in    
Wind  
Wind Speed 15 mph (WSW)    
Max Wind Speed 21 mph    
Max Gust Speed 33 mph    
Visibility 10 miles    
Events      
Averages and records for this station are not official NWS values.
T = Trace of Precipitation, MM = Missing Value Source: NWS Daily Summary

Daily Weather History Graph

Daily Weather History Graph

Search for Another Location

Airport:

Trip Planner

Search our weather history database for the weather conditions in past years. The results will help you decide how hot, cold, wet, or windy it might be!

Date:

Astronomy

Nov. 25, 2014 Rise Set
Actual Time 7:39 AM EST 5:06 PM EST
Civil Twilight 7:08 AM EST 5:37 PM EST
Nautical Twilight 6:33 AM EST 6:11 PM EST
Astronomical Twilight 5:59 AM EST 6:45 PM EST
Moon 10:22 AM EST (11/25) 8:31 PM EST (11/25)
Length of Visible Light 10h 28m
Length of Day
9h 26m
Waxing Crescent, 12% of the Moon is Illuminated
Nov 25
Waxing Crescent
Nov 29
First Quarter
Dec 6
Full
Dec 14
Last Quarter
Dec 21
New

Hourly Weather History & Observations

Time (EST) Temp. Windchill Dew Point Humidity Pressure Visibility Wind Dir Wind Speed Gust Speed Precip Events Conditions
12:15 AM 30.7 °F 18.5 °F 26.6 °F 85% 29.68 in 10.0 mi SW 19.6 mph 28.8 mph N/A   Overcast
12:35 AM 30.6 °F 18.2 °F 26.6 °F 85% 29.69 in 10.0 mi SW 19.6 mph 29.9 mph N/A   Overcast
12:54 AM 30.4 °F 18.7 °F 26.6 °F 86% 29.70 in 10.0 mi SW 17.3 mph 29.9 mph N/A   Overcast
1:15 AM 30.6 °F 18.6 °F 26.6 °F 85% 29.70 in 10.0 mi SW 18.4 mph 28.8 mph N/A   Overcast
1:35 AM 30.2 °F 18.5 °F 26.8 °F 87% 29.71 in 10.0 mi SW 17.3 mph 27.6 mph N/A   Overcast
1:55 AM 30.2 °F 18.1 °F 27.0 °F 88% 29.71 in 10.0 mi SW 18.4 mph 25.3 mph N/A   Overcast
2:15 AM 30.2 °F 17.8 °F 26.4 °F 86% 29.72 in 10.0 mi WSW 19.6 mph 26.5 mph N/A   Overcast
2:35 AM 30.2 °F 19.3 °F 26.4 °F 86% 29.73 in 10.0 mi SW 15.0 mph 23.0 mph N/A   Overcast
2:55 AM 30.0 °F 20.5 °F 26.2 °F 86% 29.73 in 10.0 mi SW 11.5 mph 27.6 mph N/A   Overcast
3:15 AM 29.8 °F 19.3 °F 26.1 °F 86% 29.74 in 10.0 mi SW 13.8 mph 26.5 mph N/A   Overcast
3:35 AM 29.7 °F 19.1 °F 25.7 °F 85% 29.75 in 10.0 mi WSW 13.8 mph 23.0 mph N/A   Overcast
3:55 AM 29.7 °F 16.7 °F 25.5 °F 85% 29.76 in 10.0 mi SW 20.7 mph 27.6 mph N/A   Overcast
4:15 AM 29.7 °F 19.6 °F 25.5 °F 85% 29.77 in 10.0 mi WSW 12.7 mph 19.6 mph N/A   Overcast
4:35 AM 29.3 °F 17.3 °F 25.5 °F 86% 29.78 in 10.0 mi WSW 17.3 mph 27.6 mph N/A   Overcast
4:55 AM 29.1 °F 17.1 °F 25.5 °F 86% 29.78 in 7.0 mi WSW 17.3 mph 28.8 mph N/A   Overcast
5:15 AM 29.1 °F 17.5 °F 25.7 °F 87% 29.79 in 7.0 mi SW 16.1 mph 20.7 mph N/A   Overcast
5:34 AM 28.8 °F 17.5 °F 26.1 °F 90% 29.80 in 5.0 mi SW 15.0 mph 21.9 mph N/A   Overcast
5:55 AM 28.4 °F 18.0 °F 26.2 °F 92% 29.81 in 5.0 mi SW 12.7 mph 24.2 mph N/A   Overcast
6:15 AM 28.8 °F 17.5 °F 25.7 °F 88% 29.82 in 10.0 mi WSW 15.0 mph 23.0 mph N/A   Overcast
6:34 AM 28.8 °F 16.2 °F 25.3 °F 87% 29.83 in 10.0 mi SW 18.4 mph 27.6 mph N/A   Overcast
6:55 AM 28.9 °F 16.9 °F 24.6 °F 84% 29.84 in 10.0 mi SW 17.3 mph 25.3 mph N/A   Overcast
7:15 AM 28.8 °F 17.0 °F 24.4 °F 84% 29.85 in 10.0 mi SW 16.1 mph 33.4 mph N/A   Overcast
7:34 AM 28.9 °F 15.8 °F 24.3 °F 83% 29.86 in 10.0 mi SW 20.7 mph 26.5 mph N/A   Overcast
7:55 AM 28.9 °F 16.9 °F 23.9 °F 81% 29.87 in 10.0 mi WSW 17.3 mph 26.5 mph N/A   Overcast
8:15 AM 28.9 °F 18.2 °F 23.9 °F 81% 29.88 in 10.0 mi WSW 13.8 mph 26.5 mph N/A   Overcast
8:34 AM 28.9 °F 16.9 °F 23.9 °F 81% 29.88 in 10.0 mi WSW 17.3 mph 24.2 mph N/A   Overcast
8:55 AM 28.9 °F 18.2 °F 23.5 °F 80% 29.89 in 10.0 mi WSW 13.8 mph 21.9 mph N/A   Overcast
9:15 AM 28.8 °F 17.0 °F 23.4 °F 80% 29.90 in 10.0 mi WSW 16.1 mph 25.3 mph N/A   Overcast
9:34 AM 28.8 °F 17.9 °F 23.0 °F 79% 29.91 in 10.0 mi WSW 13.8 mph 24.2 mph N/A   Overcast
9:55 AM 28.9 °F 17.3 °F 23.2 °F 79% 29.92 in 10.0 mi WSW 16.1 mph 26.5 mph N/A   Overcast
10:15 AM 29.1 °F 19.4 °F 23.4 °F 79% 29.93 in 10.0 mi WSW 11.5 mph 21.9 mph N/A   Overcast
10:35 AM 29.5 °F 17.2 °F 23.2 °F 77% 29.93 in 10.0 mi WSW 18.4 mph 23.0 mph N/A   Overcast
10:55 AM 29.8 °F 18.4 °F 23.0 °F 76% 29.95 in 10.0 mi WSW 16.1 mph 23.0 mph N/A   Overcast
11:15 AM 30.0 °F 18.7 °F 22.6 °F 74% 29.96 in 10.0 mi WSW 16.1 mph 25.3 mph N/A   Overcast
11:35 AM 30.0 °F 18.3 °F 22.8 °F 75% 29.97 in 10.0 mi WSW 17.3 mph 26.5 mph N/A   Overcast
11:55 AM 30.4 °F 20.0 °F 23.5 °F 76% 29.97 in 10.0 mi WSW 13.8 mph 19.6 mph N/A   Overcast
12:15 PM 30.2 °F 19.8 °F 23.5 °F 76% 29.97 in 10.0 mi WSW 13.8 mph 26.5 mph N/A   Overcast
12:35 PM 30.4 °F 20.0 °F 23.9 °F 77% 29.98 in 10.0 mi WSW 13.8 mph 19.6 mph N/A   Overcast
12:55 PM 30.2 °F 18.9 °F 23.7 °F 77% 29.98 in 10.0 mi WSW 16.1 mph 21.9 mph N/A   Overcast
1:15 PM 30.2 °F 19.3 °F 23.7 °F 77% 29.99 in 10.0 mi WSW 15.0 mph 21.9 mph N/A   Overcast
1:35 PM 30.0 °F 21.1 °F 23.9 °F 78% 29.99 in 10.0 mi WSW 10.4 mph - N/A   Overcast
1:55 PM 29.8 °F 19.3 °F 23.9 °F 79% 30.00 in 10.0 mi WSW 13.8 mph 20.7 mph N/A   Overcast
2:15 PM 29.8 °F 19.8 °F 24.3 °F 80% 30.00 in 10.0 mi SW 12.7 mph 16.1 mph N/A   Overcast
2:35 PM 29.3 °F 19.1 °F 24.4 °F 82% 30.01 in 10.0 mi WSW 12.7 mph - N/A   Overcast
2:55 PM 29.3 °F 20.2 °F 24.8 °F 83% 30.02 in 10.0 mi WSW 10.4 mph 18.4 mph N/A   Overcast
3:14 PM 29.3 °F 19.6 °F 24.8 °F 83% 30.04 in 10.0 mi SW 11.5 mph 16.1 mph N/A   Overcast
3:35 PM 29.1 °F 20.6 °F 25.2 °F 85% 30.05 in 10.0 mi SW 9.2 mph - N/A   Overcast
3:55 PM 29.3 °F 21.5 °F 25.3 °F 85% 30.06 in 10.0 mi SW 8.1 mph - N/A   Overcast
4:14 PM 29.3 °F 21.5 °F 25.3 °F 85% 30.06 in 10.0 mi WSW 8.1 mph - N/A   Overcast
4:35 PM 29.8 °F 20.3 °F 23.5 °F 77% 30.08 in 10.0 mi WSW 11.5 mph 18.4 mph N/A   Overcast
4:55 PM 29.8 °F 19.8 °F 23.4 °F 77% 30.08 in 10.0 mi West 12.7 mph - N/A   Overcast
5:15 PM 29.8 °F 21.5 °F 23.5 °F 77% 30.08 in 10.0 mi WSW 9.2 mph - N/A   Overcast
5:35 PM 29.8 °F 20.3 °F 23.0 °F 76% 30.09 in 10.0 mi West 11.5 mph 16.1 mph N/A   Overcast
5:55 PM 29.8 °F 23.9 °F 23.0 °F 76% 30.10 in 10.0 mi WSW 5.8 mph - N/A   Overcast
6:15 PM 29.8 °F 23.0 °F 23.4 °F 77% 30.12 in 10.0 mi WSW 6.9 mph - N/A   Overcast
6:34 PM 29.7 °F 22.0 °F 23.4 °F 77% 30.12 in 10.0 mi WSW 8.1 mph - N/A   Overcast
6:55 PM 29.7 °F 22.0 °F 23.4 °F 77% 30.12 in 10.0 mi WSW 8.1 mph - N/A   Overcast
7:15 PM 29.3 °F 21.5 °F 23.5 °F 79% 30.12 in 10.0 mi West 8.1 mph - N/A   Overcast
7:35 PM 29.7 °F 22.8 °F 23.5 °F 78% 30.13 in 10.0 mi West 6.9 mph - N/A   Overcast
7:55 PM 29.7 °F 23.7 °F 23.2 °F 77% 30.14 in 10.0 mi West 5.8 mph - N/A   Overcast
8:15 PM 29.7 °F 22.0 °F 22.1 °F 73% 30.14 in 10.0 mi West 8.1 mph - N/A   Overcast
8:35 PM 29.5 °F 21.8 °F 21.6 °F 72% 30.15 in 10.0 mi West 8.1 mph - N/A   Overcast
8:55 PM 29.3 °F 21.5 °F 21.2 °F 72% 30.15 in 10.0 mi West 8.1 mph - N/A   Overcast
9:15 PM 29.1 °F 23.0 °F 21.2 °F 72% 30.15 in 10.0 mi WNW 5.8 mph - N/A   Overcast
9:35 PM 29.1 °F 24.1 °F 21.6 °F 73% 30.17 in 10.0 mi WSW 4.6 mph - N/A   Overcast
9:55 PM 29.3 °F 25.6 °F 21.7 °F 73% 30.18 in 10.0 mi West 3.5 mph - N/A   Overcast
10:15 PM 29.1 °F 22.1 °F 22.1 °F 75% 30.18 in 10.0 mi SW 6.9 mph - N/A   Overcast
10:35 PM 29.1 °F - 21.4 °F 73% 30.18 in 10.0 mi Calm Calm - N/A   Overcast
10:55 PM 28.9 °F 23.9 °F 21.9 °F 75% 30.18 in 10.0 mi SW 4.6 mph - N/A   Overcast
11:15 PM 28.8 °F 25.0 °F 21.9 °F 76% 30.18 in 10.0 mi SSW 3.5 mph - N/A   Overcast
11:35 PM 28.4 °F - 21.2 °F 74% 30.18 in 10.0 mi Calm Calm - N/A   Overcast
11:55 PM 28.4 °F 23.3 °F 21.7 °F 76% 30.18 in 10.0 mi South 4.6 mph - N/A   Overcast